FFT223 KLAX-KSFO

Flight info

Callsign FFT223
Flight time 0h 58m
Altitude 32000
Route SUMMR2 STOKD SERFR SERFR4
Aircraft A320/M-SDE3FGHIRWY/LB1

Departure

Time 2026-04-23 02:58
Airport Los Angeles International Airport (KLAX)

Arrival

Time 2026-04-23 03:56
Airport San Francisco International Airport (KSFO)
Time Latitude Longitude Altitude Speed Heading
2026-04-23 02:22 33.93955 -118.40642 93 ft 0 kts 344°
2026-04-23 02:43 33.93936 -118.40636 93 ft 4 kts 353°
2026-04-23 02:43 33.93910 -118.40637 93 ft 4 kts 24°
2026-04-23 02:43 33.93895 -118.40653 93 ft 2 kts 83°
2026-04-23 02:44 33.93895 -118.40654 93 ft 0 kts 83°
2026-04-23 02:48 33.93896 -118.40647 93 ft 4 kts 82°
2026-04-23 02:49 33.93902 -118.40585 95 ft 11 kts 83°
2026-04-23 02:49 33.93913 -118.40478 95 ft 14 kts 82°
2026-04-23 02:49 33.93925 -118.40358 94 ft 15 kts 83°
2026-04-23 02:49 33.93891 -118.40294 94 ft 9 kts 171°
2026-04-23 02:50 33.93855 -118.40244 96 ft 9 kts 99°
2026-04-23 02:50 33.93864 -118.40148 96 ft 14 kts 82°
2026-04-23 02:50 33.93876 -118.40026 97 ft 16 kts 84°
2026-04-23 02:50 33.93890 -118.39892 96 ft 17 kts 83°
2026-04-23 02:51 33.93904 -118.39748 95 ft 18 kts 85°
2026-04-23 02:51 33.93918 -118.39596 95 ft 19 kts 84°
2026-04-23 02:51 33.93934 -118.39433 95 ft 21 kts 83°
2026-04-23 02:51 33.93943 -118.39310 94 ft 0 kts 116°
2026-04-23 02:52 33.93947 -118.39297 95 ft 4 kts 67°
2026-04-23 02:52 33.93957 -118.39233 94 ft 11 kts 81°
2026-04-23 02:52 33.93968 -118.39123 96 ft 14 kts 84°
2026-04-23 02:52 33.93981 -118.38998 94 ft 16 kts 82°
2026-04-23 02:53 33.93995 -118.38863 94 ft 17 kts 83°
2026-04-23 02:53 33.94009 -118.38722 95 ft 17 kts 83°
2026-04-23 02:53 33.94024 -118.38582 96 ft 17 kts 82°
2026-04-23 02:53 33.94038 -118.38442 98 ft 17 kts 82°
2026-04-23 02:54 33.94052 -118.38302 96 ft 17 kts 82°
2026-04-23 02:54 33.94068 -118.38155 94 ft 19 kts 83°
2026-04-23 02:54 33.94076 -118.38065 93 ft 1 kts 85°
2026-04-23 02:54 33.94077 -118.38046 93 ft 0 kts 85°
2026-04-23 02:55 33.94077 -118.38041 93 ft 0 kts 87°
2026-04-23 02:55 33.94077 -118.38035 93 ft 0 kts 87°
2026-04-23 02:56 33.94076 -118.38032 93 ft 1 kts 102°
2026-04-23 02:56 33.94051 -118.38003 93 ft 7 kts 156°
2026-04-23 02:57 33.93992 -118.38019 93 ft 12 kts 224°
2026-04-23 02:57 33.93977 -118.38079 94 ft 2 kts 264°
2026-04-23 02:57 33.93972 -118.38139 95 ft 21 kts 264°
2026-04-23 02:57 33.93911 -118.38731 96 ft 117 kts 263°
2026-04-23 02:58 33.93778 -118.39991 246 ft 174 kts 263°
2026-04-23 02:58 33.93612 -118.41577 723 ft 210 kts 262°
2026-04-23 02:58 33.93396 -118.43465 1430 ft 243 kts 263°
2026-04-23 02:58 33.93132 -118.45587 2388 ft 268 kts 262°
2026-04-23 02:59 33.92828 -118.47878 3443 ft 283 kts 263°
2026-04-23 02:59 33.92615 -118.50154 5229 ft 267 kts 266°
2026-04-23 02:59 33.92475 -118.52380 6714 ft 266 kts 268°
2026-04-23 02:59 33.92349 -118.54603 8048 ft 267 kts 268°
2026-04-23 03:00 33.92212 -118.56832 9429 ft 267 kts 268°
2026-04-23 03:00 33.92058 -118.59069 10585 ft 276 kts 267°
2026-04-23 03:00 33.91884 -118.61424 11334 ft 293 kts 267°
2026-04-23 03:00 33.91769 -118.63898 11827 ft 297 kts 272°
2026-04-23 03:01 33.91763 -118.66387 11970 ft 297 kts 271°
2026-04-23 03:01 33.91756 -118.68872 11996 ft 296 kts 272°
2026-04-23 03:01 33.91748 -118.71351 12013 ft 296 kts 272°
2026-04-23 03:01 33.91739 -118.73829 12001 ft 295 kts 272°
2026-04-23 03:02 33.91729 -118.76299 12000 ft 295 kts 271°
2026-04-23 03:02 33.91717 -118.78768 12001 ft 295 kts 271°
2026-04-23 03:02 33.91705 -118.81235 12001 ft 295 kts 272°
2026-04-23 03:02 33.91698 -118.83709 12016 ft 296 kts 272°
2026-04-23 03:03 33.91741 -118.86243 12730 ft 306 kts 274°
2026-04-23 03:03 33.91820 -118.88775 14087 ft 302 kts 274°
2026-04-23 03:03 33.91908 -118.91307 15175 ft 303 kts 274°
2026-04-23 03:03 33.91996 -118.93852 16205 ft 305 kts 273°
2026-04-23 03:04 33.92079 -118.96418 17201 ft 308 kts 273°
2026-04-23 03:04 33.92163 -118.98980 18172 ft 312 kts 274°
2026-04-23 03:04 33.92548 -119.01560 19032 ft 316 kts 285°
2026-04-23 03:04 33.93442 -119.04000 19874 ft 323 kts 297°
2026-04-23 03:05 33.94640 -119.06312 20717 ft 327 kts 298°
2026-04-23 03:05 33.95853 -119.08646 21552 ft 330 kts 298°
2026-04-23 03:05 33.97073 -119.11008 22394 ft 334 kts 298°
2026-04-23 03:05 33.98305 -119.13401 23226 ft 338 kts 298°
2026-04-23 03:06 33.99549 -119.15820 23982 ft 342 kts 298°
2026-04-23 03:06 34.00955 -119.18165 24660 ft 350 kts 306°
2026-04-23 03:06 34.02778 -119.20179 25344 ft 362 kts 316°
2026-04-23 03:06 34.04844 -119.21944 26026 ft 366 kts 317°
2026-04-23 03:07 34.06927 -119.23725 26656 ft 369 kts 317°
2026-04-23 03:07 34.09031 -119.25534 27255 ft 373 kts 317°
2026-04-23 03:07 34.11148 -119.27361 27835 ft 377 kts 317°
2026-04-23 03:07 34.13290 -119.29210 28408 ft 381 kts 317°
2026-04-23 03:08 34.15456 -119.31081 28963 ft 385 kts 317°
2026-04-23 03:08 34.17645 -119.32969 29512 ft 389 kts 317°
2026-04-23 03:08 34.19859 -119.34877 30045 ft 393 kts 317°
2026-04-23 03:08 34.22093 -119.36801 30552 ft 396 kts 317°
2026-04-23 03:09 34.24337 -119.38734 31045 ft 398 kts 316°
2026-04-23 03:09 34.26595 -119.40681 31500 ft 400 kts 316°
2026-04-23 03:09 34.28862 -119.42640 31891 ft 400 kts 316°
2026-04-23 03:10 34.33381 -119.46543 31991 ft 398 kts 316°
2026-04-23 03:10 34.37878 -119.50436 31983 ft 397 kts 316°
2026-04-23 03:11 34.42186 -119.54549 31963 ft 388 kts 308°
2026-04-23 03:11 34.45342 -119.58447 31975 ft 389 kts 308°
2026-04-23 03:12 34.49148 -119.63120 31964 ft 389 kts 308°
2026-04-23 03:12 34.52957 -119.67792 31983 ft 389 kts 307°
2026-04-23 03:13 34.56755 -119.72487 31988 ft 390 kts 307°
2026-04-23 03:13 34.60555 -119.77187 31999 ft 389 kts 308°
2026-04-23 03:14 34.64333 -119.81848 32007 ft 389 kts 307°
2026-04-23 03:14 34.68132 -119.86553 32019 ft 390 kts 308°
2026-04-23 03:15 34.71928 -119.91253 32003 ft 389 kts 308°
2026-04-23 03:15 34.75710 -119.95953 32032 ft 388 kts 308°
2026-04-23 03:16 34.79486 -120.00650 32041 ft 388 kts 307°
2026-04-23 03:16 34.85141 -120.07691 32052 ft 387 kts 307°
2026-04-23 03:17 34.88905 -120.12388 32044 ft 388 kts 307°
2026-04-23 03:17 34.92672 -120.17096 32065 ft 388 kts 307°
2026-04-23 03:18 34.96431 -120.21804 32072 ft 387 kts 307°
2026-04-23 03:18 35.00159 -120.26479 32077 ft 387 kts 307°
2026-04-23 03:19 35.03917 -120.31177 32078 ft 387 kts 307°
2026-04-23 03:19 35.07668 -120.35883 32087 ft 386 kts 307°
2026-04-23 03:20 35.11488 -120.40477 32072 ft 387 kts 310°
2026-04-23 03:20 35.15490 -120.44904 32078 ft 388 kts 311°
2026-04-23 03:21 35.19511 -120.49318 32066 ft 387 kts 311°
2026-04-23 03:21 35.23497 -120.53769 32104 ft 388 kts 310°
2026-04-23 03:22 35.27449 -120.58212 32069 ft 384 kts 310°
2026-04-23 03:22 35.31356 -120.62620 32072 ft 384 kts 310°
2026-04-23 03:23 35.35288 -120.67052 32076 ft 384 kts 310°
2026-04-23 03:23 35.39224 -120.71493 32077 ft 387 kts 310°
2026-04-23 03:24 35.43202 -120.75999 32078 ft 390 kts 310°
2026-04-23 03:24 35.47194 -120.80524 32091 ft 391 kts 310°
2026-04-23 03:25 35.51478 -120.84715 32094 ft 395 kts 315°
2026-04-23 03:25 35.55870 -120.88772 32094 ft 395 kts 315°
2026-04-23 03:26 35.60238 -120.92841 32086 ft 393 kts 315°
2026-04-23 03:26 35.64594 -120.96894 32080 ft 392 kts 315°
2026-04-23 03:27 35.68950 -121.00954 32083 ft 393 kts 315°
2026-04-23 03:27 35.73309 -121.05016 32089 ft 393 kts 315°
2026-04-23 03:28 35.77647 -121.09064 32094 ft 391 kts 314°
2026-04-23 03:28 35.79855 -121.11066 31497 ft 404 kts 319°
2026-04-23 03:28 35.82170 -121.12935 31342 ft 392 kts 316°
2026-04-23 03:29 35.86474 -121.17038 31908 ft 392 kts 313°
2026-04-23 03:29 35.88583 -121.19160 32151 ft 391 kts 313°
2026-04-23 03:29 35.90704 -121.21259 32199 ft 390 kts 313°
2026-04-23 03:30 35.94976 -121.25350 32192 ft 388 kts 314°
2026-04-23 03:30 35.99282 -121.29379 32201 ft 388 kts 314°
2026-04-23 03:31 36.03556 -121.33383 32206 ft 388 kts 314°
2026-04-23 03:31 36.07927 -121.37319 32247 ft 391 kts 319°
2026-04-23 03:32 36.10196 -121.39070 32067 ft 376 kts 319°
2026-04-23 03:32 36.12374 -121.40745 31814 ft 363 kts 319°
2026-04-23 03:32 36.14493 -121.42386 31573 ft 357 kts 318°
2026-04-23 03:32 36.16581 -121.44017 31332 ft 354 kts 318°
2026-04-23 03:33 36.18656 -121.45646 31084 ft 352 kts 318°
2026-04-23 03:33 36.20724 -121.47271 30846 ft 351 kts 318°
2026-04-23 03:33 36.22782 -121.48890 30608 ft 350 kts 318°
2026-04-23 03:33 36.24833 -121.50499 30375 ft 348 kts 318°
2026-04-23 03:34 36.26873 -121.52095 30102 ft 345 kts 318°
2026-04-23 03:34 36.28907 -121.53693 29812 ft 346 kts 318°
2026-04-23 03:34 36.30937 -121.55291 29533 ft 345 kts 318°
2026-04-23 03:34 36.32965 -121.56886 29260 ft 345 kts 319°
2026-04-23 03:35 36.34985 -121.58471 28988 ft 343 kts 319°
2026-04-23 03:35 36.36999 -121.60051 28716 ft 342 kts 319°
2026-04-23 03:35 36.39006 -121.61626 28455 ft 340 kts 319°
2026-04-23 03:35 36.41005 -121.63196 28187 ft 339 kts 319°
2026-04-23 03:36 36.42987 -121.64752 27923 ft 334 kts 319°
2026-04-23 03:36 36.44933 -121.66276 27499 ft 327 kts 319°
2026-04-23 03:36 36.46811 -121.67747 27078 ft 321 kts 319°
2026-04-23 03:36 36.48690 -121.69226 26581 ft 318 kts 319°
2026-04-23 03:37 36.50547 -121.70692 26104 ft 315 kts 320°
2026-04-23 03:37 36.52391 -121.72153 25595 ft 313 kts 320°
2026-04-23 03:37 36.54232 -121.73616 25091 ft 317 kts 320°
2026-04-23 03:37 36.56104 -121.75111 24518 ft 321 kts 320°
2026-04-23 03:38 36.57987 -121.76611 23936 ft 321 kts 321°
2026-04-23 03:38 36.59871 -121.78101 23300 ft 321 kts 322°
2026-04-23 03:38 36.61750 -121.79581 22627 ft 319 kts 322°
2026-04-23 03:38 36.63621 -121.81055 21959 ft 317 kts 322°
2026-04-23 03:39 36.65471 -121.82518 21276 ft 314 kts 322°
2026-04-23 03:39 36.67305 -121.83972 20579 ft 311 kts 322°
2026-04-23 03:39 36.69118 -121.85414 19887 ft 308 kts 323°
2026-04-23 03:39 36.70918 -121.86847 19354 ft 305 kts 323°
2026-04-23 03:40 36.72689 -121.88257 19144 ft 306 kts 324°
2026-04-23 03:40 36.74639 -121.89444 18905 ft 311 kts 335°
2026-04-23 03:40 36.76736 -121.90150 18677 ft 314 kts 342°
2026-04-23 03:40 36.78869 -121.90735 18324 ft 313 kts 342°
2026-04-23 03:41 36.80988 -121.91322 17917 ft 311 kts 342°
2026-04-23 03:41 36.83065 -121.91900 17377 ft 309 kts 342°
2026-04-23 03:41 36.85154 -121.92481 16914 ft 307 kts 343°
2026-04-23 03:41 36.87235 -121.93061 16526 ft 305 kts 343°
2026-04-23 03:42 36.89304 -121.93643 16121 ft 304 kts 343°
2026-04-23 03:42 36.91363 -121.94224 15733 ft 302 kts 343°
2026-04-23 03:42 36.93409 -121.94799 15338 ft 301 kts 343°
2026-04-23 03:42 36.95443 -121.95382 14954 ft 299 kts 342°
2026-04-23 03:43 36.97440 -121.96073 14536 ft 297 kts 340°
2026-04-23 03:43 36.99410 -121.96838 14117 ft 295 kts 340°
2026-04-23 03:43 37.01360 -121.97627 13671 ft 294 kts 340°
2026-04-23 03:43 37.03300 -121.98414 13250 ft 292 kts 340°
2026-04-23 03:44 37.05233 -121.99191 12844 ft 291 kts 340°
2026-04-23 03:44 37.07158 -121.99958 12440 ft 289 kts 340°
2026-04-23 03:44 37.09075 -122.00717 12039 ft 290 kts 341°
2026-04-23 03:44 37.10964 -122.01460 11665 ft 285 kts 341°
2026-04-23 03:45 37.12851 -122.02199 11247 ft 282 kts 341°
2026-04-23 03:45 37.14717 -122.02929 10847 ft 279 kts 342°
2026-04-23 03:45 37.16566 -122.03650 10456 ft 278 kts 342°
2026-04-23 03:45 37.18408 -122.04369 10057 ft 276 kts 342°
2026-04-23 03:46 37.20228 -122.05081 9740 ft 270 kts 342°
2026-04-23 03:46 37.22007 -122.05781 9307 ft 267 kts 342°
2026-04-23 03:46 37.23767 -122.06474 8906 ft 263 kts 342°
2026-04-23 03:46 37.25509 -122.07160 8537 ft 261 kts 342°
2026-04-23 03:47 37.27239 -122.07841 8183 ft 260 kts 342°
2026-04-23 03:47 37.28954 -122.08515 7975 ft 258 kts 343°
2026-04-23 03:47 37.30680 -122.09197 7841 ft 259 kts 343°
2026-04-23 03:47 37.32363 -122.09862 7442 ft 256 kts 343°
2026-04-23 03:48 37.34083 -122.10539 6985 ft 255 kts 343°
2026-04-23 03:48 37.35775 -122.11201 6496 ft 255 kts 343°
2026-04-23 03:48 37.37439 -122.11855 6018 ft 253 kts 343°
2026-04-23 03:48 37.39140 -122.12482 5368 ft 257 kts 345°
2026-04-23 03:49 37.40884 -122.13071 4648 ft 258 kts 346°
2026-04-23 03:49 37.42590 -122.13632 4015 ft 247 kts 346°
2026-04-23 03:49 37.44176 -122.14153 3778 ft 223 kts 346°
2026-04-23 03:49 37.45598 -122.14625 3651 ft 200 kts 346°
2026-04-23 03:50 37.46876 -122.15050 3558 ft 181 kts 347°
2026-04-23 03:50 37.48069 -122.15446 3485 ft 177 kts 347°
2026-04-23 03:50 37.49255 -122.15839 3406 ft 174 kts 346°
2026-04-23 03:50 37.50399 -122.16220 3325 ft 166 kts 347°
2026-04-23 03:51 37.51497 -122.16588 3257 ft 162 kts 346°
2026-04-23 03:51 37.52582 -122.16964 3192 ft 161 kts 341°
2026-04-23 03:51 37.53501 -122.17632 3218 ft 145 kts 321°
2026-04-23 03:51 37.54085 -122.18588 3186 ft 135 kts 296°
2026-04-23 03:52 37.54471 -122.19651 3010 ft 132 kts 302°
2026-04-23 03:52 37.54961 -122.20677 2681 ft 141 kts 302°
2026-04-23 03:52 37.55442 -122.21782 2391 ft 146 kts 300°
2026-04-23 03:52 37.55927 -122.22909 2138 ft 144 kts 306°
2026-04-23 03:53 37.56443 -122.23975 1834 ft 143 kts 300°
2026-04-23 03:53 37.56862 -122.25068 1659 ft 134 kts 298°
2026-04-23 03:53 37.57263 -122.26077 1473 ft 125 kts 301°
2026-04-23 03:53 37.57677 -122.27029 1250 ft 119 kts 296°
2026-04-23 03:54 37.58082 -122.27935 1011 ft 118 kts 301°
2026-04-23 03:54 37.58493 -122.28888 924 ft 141 kts 297°
2026-04-23 03:54 37.58913 -122.29913 882 ft 121 kts 297°
2026-04-23 03:54 37.59304 -122.30875 836 ft 122 kts 297°
2026-04-23 03:55 37.59698 -122.31787 647 ft 114 kts 297°
2026-04-23 03:55 37.60058 -122.32636 462 ft 106 kts 297°
2026-04-23 03:55 37.60446 -122.33537 409 ft 125 kts 296°
2026-04-23 03:55 37.60828 -122.34462 286 ft 112 kts 298°
2026-04-23 03:56 37.61183 -122.35294 136 ft 104 kts 297°
2026-04-23 03:56 37.61532 -122.36155 28 ft 114 kts 298°
2026-04-23 03:56 37.61835 -122.36877 21 ft 68 kts 297°
2026-04-23 03:56 37.61970 -122.37212 21 ft 18 kts 296°
2026-04-23 03:57 37.62063 -122.37410 22 ft 33 kts 300°
2026-04-23 03:57 37.62169 -122.37667 21 ft 33 kts 296°
2026-04-23 03:57 37.62232 -122.37935 21 ft 32 kts 271°
2026-04-23 03:57 37.62229 -122.38151 21 ft 22 kts 268°
2026-04-23 03:58 37.62222 -122.38340 21 ft 22 kts 270°
2026-04-23 03:58 37.62210 -122.38514 23 ft 15 kts 226°
2026-04-23 03:58 37.62148 -122.38454 21 ft 13 kts 121°
2026-04-23 03:58 37.62099 -122.38359 21 ft 13 kts 141°
2026-04-23 03:59 37.62018 -122.38367 22 ft 10 kts 204°
2026-04-23 03:59 37.61985 -122.38395 21 ft 4 kts 216°
2026-04-23 03:59 37.61979 -122.38401 21 ft 1 kts 216°
2026-04-23 03:59 37.61977 -122.38403 23 ft 0 kts 216°
2026-04-23 04:00 37.61975 -122.38405 21 ft 1 kts 217°